This is the latest recevied weather packets stored in our database for station/object KI4BSX. If no packets are shown the sender has not sent any weather packets the latest 1 day(s).
| Time | Temp. | Humidity | Pressure | Rain* | Wind** | Luminosity | Snow |
|---|---|---|---|---|---|---|---|
| 1778061979 | 16.67° C | 79% | 1015.6 hPa | 0 mm | - | - | - |
| 1778061676 | 16.67° C | 79% | 1015.5 hPa | 0 mm | - | - | - |
| 1778061375 | 17.22° C | 79% | 1015.3 hPa | 0 mm | - | - | - |
| 1778060466 | 17.22° C | 78% | 1016 hPa | 0 mm | - | - | - |
| 1778058954 | 17.22° C | 76% | 1015.4 hPa | 0 mm | - | - | - |
| 1778058349 | 17.22° C | 76% | 1015.6 hPa | 0 mm | - | - | - |
| 1778058045 | 17.78° C | 76% | 1015.7 hPa | 0 mm | - | - | - |
| 1778057742 | 17.78° C | 76% | 1015.6 hPa | 0 mm | - | - | - |
| 1778057438 | 17.78° C | 76% | 1015.7 hPa | 0 mm | - | - | - |
| 1778055923 | 17.78° C | 78% | 1016.4 hPa | 0 mm | - | - | - |
| 1778055317 | 17.78° C | 80% | 1016.3 hPa | 0 mm | - | - | - |
| 1778055014 | 17.22° C | 81% | 1016.5 hPa | 0 mm | - | - | - |
| 1778053803 | 16.67° C | 84% | 1016.2 hPa | 0 mm | - | - | - |
| 1778053500 | 16.67° C | 84% | 1016 hPa | 0 mm | - | - | - |
| 1778052895 | 16.67° C | 84% | 1016 hPa | 0 mm | - | - | - |
| 1778052592 | 16.67° C | 83% | 1016.1 hPa | 0 mm | - | - | - |
| 1778052289 | 16.67° C | 84% | 1016.3 hPa | 0 mm | - | - | - |
| 1778051987 | 16.67° C | 84% | 1016.4 hPa | 0 mm | - | - | - |
| 1778051078 | 16.67° C | 84% | 1016.5 hPa | 0 mm | - | - | - |
| 1778050473 | 16.67° C | 84% | 1016.4 hPa | 0 mm | - | - | - |
| 1778049866 | 16.67° C | 84% | 1016.7 hPa | 0 mm | - | - | - |
| 1778049260 | 16.67° C | 84% | 1016.3 hPa | 0 mm | - | - | - |
| 1778048958 | 16.67° C | 84% | 1016.2 hPa | 0 mm | - | - | - |
| 1778048656 | 16.67° C | 84% | 1016.2 hPa | 0 mm | - | - | - |
| 1778047141 | 16.67° C | 84% | 1016.3 hPa | 0 mm | - | - | - |
* Rain latest hour (hover to see other rain measurements)
** Current wind speed in m/s (hover to see current wind gust speed)